This is the latest recevied weather packets stored in our database for station/object KC3ROS. If no packets are shown the sender has not sent any weather packets the latest 10 day(s).
| Time | Temp. | Humidity | Pressure | Rain* | Wind** | Luminosity | Snow |
|---|---|---|---|---|---|---|---|
| 1777549460 | 7.22° C | 99% | 1009.1 hPa | 2.29 mm | - | 30 W/m² | - |
| 1777549156 | 7.78° C | 98% | 1008.8 hPa | 4.83 mm | - | 17 W/m² | - |
| 1777548853 | 8.33° C | 98% | 1008.8 hPa | 1.78 mm | - | 3 W/m² | - |
| 1777548550 | 7.78° C | 99% | 1008.6 hPa | 0 mm | - | 7 W/m² | - |
| 1777548246 | 7.78° C | 99% | 1008.6 hPa | 0 mm | - | 5 W/m² | - |
| 1777547943 | 7.78° C | 99% | 1008.6 hPa | 0 mm | - | 11 W/m² | - |
| 1777547639 | 7.78° C | 99% | 1008.5 hPa | 0 mm | - | 14 W/m² | - |
| 1777547336 | 7.78° C | 99% | 1008.5 hPa | 0 mm | - | 13 W/m² | - |
| 1777547034 | 7.78° C | 99% | 1008.7 hPa | 0 mm | - | 10 W/m² | - |
| 1777546730 | 7.78° C | 99% | 1008.5 hPa | 0 mm | - | 14 W/m² | - |
| 1777546427 | 7.78° C | 99% | 1008.5 hPa | 0 mm | - | 22 W/m² | - |
| 1777546124 | 7.78° C | 99% | 1008.6 hPa | 0 mm | - | 16 W/m² | - |
| 1777545820 | 7.78° C | 99% | 1008.5 hPa | 0 mm | - | 13 W/m² | - |
| 1777545517 | 7.78° C | 99% | 1008.4 hPa | 0 mm | - | 6 W/m² | - |
| 1777545214 | 7.78° C | 99% | 1008.8 hPa | 0 mm | - | 4 W/m² | - |
| 1777544912 | 7.78° C | 99% | 1008.6 hPa | 0 mm | - | 3 W/m² | - |
| 1777544608 | 7.78° C | 99% | 1008.5 hPa | 0 mm | - | 2 W/m² | - |
| 1777544305 | 7.78° C | 99% | 1008.7 hPa | 0 mm | - | 1 W/m² | - |
| 1777544001 | 7.78° C | 99% | 1008.6 hPa | 0 mm | - | 0 W/m² | - |
| 1777543698 | 7.78° C | 99% | 1008.8 hPa | 0 mm | - | 0 W/m² | - |
| 1777543394 | 7.78° C | 99% | 1008.6 hPa | 0 mm | - | 0 W/m² | - |
| 1777543090 | 7.78° C | 99% | 1008.7 hPa | 0 mm | - | 0 W/m² | - |
| 1777542786 | 7.78° C | 99% | 1008.6 hPa | 0 mm | - | 0 W/m² | - |
| 1777542483 | 7.78° C | 99% | 1008.5 hPa | 0 mm | - | 0 W/m² | - |
| 1777542179 | 7.78° C | 99% | 1008.8 hPa | 0 mm | - | 0 W/m² | - |
* Rain latest hour (hover to see other rain measurements)
** Current wind speed in m/s (hover to see current wind gust speed)